sat.trackr.live / text

‹ back to catalog

STARLINK-11478 [DTC]

NORAD 62557 · 2025-006D

PAYLOAD ACTIVE UNKNOWN

§ Identity

Operator
Country
US
Launch date
2025-01-10
Launch site
AFETR
Launch vehicle
Mass (kg)
RCS (m²)

Purposes: comms

External: N2YO · Heavens-Above · Gunter

§ Orbital elements

Epoch: 2026-09-21T15:53:00.856608Z

Period
91.67 min
Inclination
43.0001°
Eccentricity
0.0001513
Mean motion
15.70811542 rev/d
Perigee alt
355.6 km
Apogee alt
357.6 km
Semi-major
6,734.7 km
B*
9.6293e-4
RAAN
38.6481°
Arg perigee
235.2714°
Mean anomaly
124.8012°
Rev number
9,742

§ Raw data

STARLINK-11478 [DTC]1 62557U 25006D   26264.66181547  .00124830  00000+0  96293-3 0  99952 62557  43.0001  38.6481 0001513 235.2714 124.8012 15.70811542 97423

JSON: /api/v1/satellites/62557 · /tle

For live sub-satellite position, see the globe view (requires WebGL).

§ Visibility from observer

Set your observer location to see the next 7 days of passes ≥ 10°. The values pass through the URL so the page stays shareable.

No JS? Fill the form by hand. The geolocation button needs JavaScript.